Location: Lake Zurich
(42.1970°N, 88.0930°W)
Time: 15:42:36
(UTC-06:00)

Daily predictions for brighter satellites

Satellite Brightness Start Highest point End
(mag) Time Altitude Azimuth Time Altitude Azimuth Time Altitude Azimuth
USA 215 3.3 16:43:15 10° ESE 16:49:41 63° NE 16:56:08 10° NW
Abrixas rocket 3.4 16:48:03 10° WNW 16:51:00 30° N 16:53:56 10° NE
YAOGAN 1 3.7 16:47:54 10° ESE 16:51:12 22° ENE 16:54:30 10° NNE
BREEZE-M DEB (TANK) 4.0 16:50:28 10° NW 16:52:46 29° NNE 16:56:54 10° E
CSL-04 Debris 4.3 16:48:55 10° SE 16:54:07 53° ENE 16:59:21 10° N
Meteor 2-4 Rocket 4.1 16:51:36 10° SSE 16:56:36 39° E 17:01:33 10° NNE
NOSS 3-4 (A) 4.5 16:52:01 10° SSE 16:57:10 28° ESE 17:02:27 10° NE
NOSS 3-4 (C) 4.5 16:52:09 10° SSE 16:57:16 28° ESE 17:02:31 10° NE
Cosmos 1975 3.3 16:54:56 10° NNW 16:58:58 68° W 17:02:59 10° S
ISS -2.6 16:58:14 10° WNW 17:01:26 47° SW 17:04:35 10° SE
Cosmos 724 4.4 16:56:21 10° NNW 17:02:02 54° NE 17:07:43 10° SE
Cosmos 2369 3.9 16:59:45 10° S 17:05:14 53° ESE 17:10:47 10° NNE
Cosmos 2278 4.0 16:59:58 10° S 17:05:26 51° ESE 17:10:56 10° NE
AQUARIUS 4.2 17:01:29 10° SSE 17:05:53 57° ENE 17:10:19 10° N
COSMO-SKYMED 1 3.9 17:03:50 10° NE 17:07:08 21° E 17:10:24 10° SE
SJ 16-02 1.7 17:04:08 10° S 17:08:19 46° ESE 17:12:33 10° NNE
CSL-04 Rocket 3.7 17:03:59 10° SSE 17:09:24 79° ENE 17:14:56 10° NNW
CZ-2C R/B 3.8 17:04:56 10° S 17:09:54 46° W 17:14:52 10° NNW
Meteor 1-28 Rocket 3.5 17:06:28 10° NNE 17:10:07 46° E 17:13:46 10° S
CENTAUR R/B 3.9 17:05:01 10° NNW 17:11:32 29° NE 17:18:30 10° E
Meteor 1-13 Rocket 4.2 17:06:19 10° S 17:11:52 72° E 17:17:36 10° NNE
Cosmos 1975 Rocket 4.3 17:08:52 10° SSW 17:13:09 45° WNW 17:17:29 10° N
IRAS Rocket 4.2 17:09:45 10° SSE 17:15:14 88° ENE 17:20:45 10° NNW
Cosmos 2279 Rocket 4.4 17:12:42 10° SSW 17:18:56 68° W 17:25:11 10° N
Cosmos 1697 Rocket 3.2 17:15:30 10° S 17:20:45 41° ESE 17:25:54 10° NE
Cosmos 1743 3.5 17:18:07 10° NNW 17:21:57 56° W 17:25:45 10° S
CZ-2C R/B 3.9 17:19:32 10° NNE 17:24:10 54° E 17:28:49 10° S
EO 1 Del DPAF 4.5 17:22:11 15° NE 17:24:13 22° E 17:27:13 10° SSE
CZ-4 R/B 1.2 17:22:59 10° SSE 17:26:51 71° ENE 17:30:48 10° N
SPOT 3 Rocket 4.1 17:25:17 10° SE 17:29:52 33° ENE 17:34:27 10° N
Cosmos 1025 Rocket 3.8 17:27:27 10° SSE 17:31:12 30° E 17:34:10 14° NE
Ariane Rocket 3.2 17:27:00 10° S 17:32:02 75° WSW 17:37:07 10° NNW
Cosmos 2082 3.7 17:28:52 10° NNW 17:34:31 87° WSW 17:40:09 10° SSE
Okean 1-7 Rocket 4.5 17:33:45 10° SSE 17:37:27 27° E 17:39:24 20° NE
ERS-2 2.7 17:34:28 10° SE 17:37:46 33° ENE 17:41:07 10° N
Landsat 4 3.9 17:35:27 12° NNE 17:38:52 50° E 17:42:34 10° S
Gblst 52 Del rocket 4.3 17:33:32 10° NW 17:39:04 59° NNE 17:44:12 14° ESE
SMAP 3.6 17:35:14 10° S 17:39:49 62° W 17:44:27 10° NNW
Cosmos 2084 3.9 17:35:58 10° S 17:39:53 40° ESE 17:41:44 25° ENE
Cosmos 2251 Rocket 4.5 17:35:40 10° N 17:40:00 25° ENE 17:42:21 18° E
Cosmos 1536 Rocket 3.7 17:37:01 10° SSW 17:41:20 73° W 17:45:41 10° N
USA 238 DEB 4.4 17:36:21 10° NW 17:43:19 60° WSW 17:50:22 10° SSE
USA 238 4.4 17:36:27 10° NW 17:43:25 61° WSW 17:50:28 10° SSE
Cosmos 2227 Rocket 2.9 17:39:52 10° NNW 17:45:25 56° WSW 17:50:54 10° S
Cosmos 1269 Rocket 4.0 17:40:24 10° NNW 17:45:44 86° ENE 17:51:02 10° SSE
Cosmos 1125 Rocket 3.7 17:40:35 10° SSW 17:45:52 73° WNW 17:51:11 10° NNE
Okean 2 3.6 17:44:24 10° SSE 17:48:18 46° E 17:50:50 20° NNE
Gbstr 26 Del rocket 4.4 17:41:27 10° SW 17:49:34 88° SE 17:54:39 22° NE
Cosmos 1241 Rocket 4.4 17:44:30 10° SSW 17:50:51 73° ESE 17:55:41 18° NE
Cosmos 1048 Rocket 4.5 17:48:18 10° NNW 17:53:39 66° WSW 17:58:56 10° S
DNEPR-1 R/B 4.4 17:49:18 10° NNW 17:54:11 46° NE 17:59:46 11° SE
ALOS 2.3 17:50:22 10° SSE 17:54:54 54° ENE 17:59:28 10° N
SKYMED 2 3.5 17:51:24 12° NNE 17:55:25 69° ESE 17:59:44 10° S
Cosmos 372 Rocket 4.5 17:52:23 10° SSW 17:57:32 60° WNW 18:02:39 10° NNE
MTI 3.6 17:56:22 26° NNE 17:58:04 83° ESE 18:01:18 10° S
Nadezhda 2 Rocket 4.4 17:55:42 10° N 18:02:02 72° E 18:08:25 10° SSE
Cosmos 1980 Rocket 2.3 17:56:41 10° S 18:02:09 52° ESE 18:05:03 27° NE
MOS 1 4.3 18:05:50 10° SSE 18:11:32 86° WSW 18:17:15 10° NNW
NOSS 3-2 (A) 4.3 18:04:00 10° NW 18:11:33 70° WSW 18:19:43 10° SSE
Cosmos 2297 Rocket 3.6 18:06:28 10° NW 18:11:43 40° WSW 18:16:56 10° S
Cosmos 1656 4.4 18:06:44 10° SW 18:12:09 51° WNW 18:17:02 13° NNE
NOSS 3-2 (C) 4.1 18:12:20 10° NW 18:19:56 80° WSW 18:28:12 10° SSE
ATLAS 3B R/B 4.4 18:17:32 10° NW 18:23:13 31° WSW 18:28:49 10° S
PSLV R/B 3.9 18:22:30 10° W 18:25:00 49° WSW 18:25:00 49° WSW
SL-24 R/B - RUBIN 2 4.2 18:19:58 10° SSW 18:26:13 89° NW 18:28:35 38° NNE
YAOGAN 1 4.2 18:23:07 10° SSW 18:27:05 35° W 18:31:04 10° NNW
ATLAS 2AS CENTAUR R/B 4.4 18:20:13 10° W 18:27:09 32° NW 18:33:20 13° NNE
Abrixas rocket 4.2 18:25:15 10° NW 18:26:50 21° NNW 18:26:50 21° NNW
NOAA 12 4.2 18:23:51 10° S 18:29:07 77° WSW 18:34:24 10° NNW
DELTA 2 R/B (1) 4.0 18:24:20 10° W 18:29:46 54° SSW 18:31:48 35° SE
Cosmos 2344 4.2 18:24:54 10° S 18:31:20 32° ESE 18:31:20 32° ESE
Lacrosse 5 rocket 3.6 18:28:36 10° S 18:29:24 14° SSE 18:29:24 14° SSE
Cosmos 2227 4.1 18:26:49 10° NNW 18:32:34 63° ENE 18:34:03 47° ESE
USA 215 4.5 18:26:49 10° SSE 18:32:52 40° SW 18:38:56 10° WNW
S3M 3.8 18:36:31 10° S 18:42:35 68° E 18:44:08 49° NNE
COSMO-SKYMED 1 4.0 18:40:01 13° N 18:43:23 35° WNW 18:47:19 10° SW
RESURS DK-1 2.9 18:40:36 10° SSW 18:43:46 52° SSW 18:43:46 52° SSW
FENGYUN 3A 4.3 18:39:33 10° S 18:44:49 55° W 18:50:05 10° NNW
SL-16 R/B 3.4 18:39:42 10° S 18:42:32 27° SSE 18:42:32 27° SSE
Cosmos 2263 Rocket 3.8 18:41:45 10° N 18:43:35 19° N 18:43:35 19° N
SJ 16-02 3.9 18:44:13 10° WSW 18:47:11 18° WNW 18:50:11 10° NNW
NOSS 3-4 (A) 4.0 18:41:34 10° SW 18:47:38 55° NW 18:50:25 33° NNE
NOSS 3-4 (C) 4.0 18:41:39 10° SW 18:47:45 56° NW 18:50:29 33° NNE
Cosmos 2322 Rocket 3.5 18:44:02 10° S 18:46:37 26° SSE 18:46:37 26° SSE
Cosmos 2360 4.5 18:48:39 10° SW 18:54:21 67° WNW 18:55:56 46° N
BREEZE-M DEB (TANK) 4.4 18:57:37 10° NW 18:59:42 37° NNW 18:59:42 37° NNW
CENTAUR R/B 3.0 18:55:19 10° NW 19:03:18 88° NE 19:06:43 41° SE
Cosmos 1697 Rocket 4.2 18:59:50 10° WSW 19:04:48 31° NW 19:07:40 20° N
Cosmos 1553 Rocket 4.4 19:09:15 10° SSW 19:15:34 61° W 19:19:12 27° N
Cosmos 1745 Rocket 4.4 19:22:28 10° NNW 19:28:33 59° W 19:34:40 10° S
Cosmos 1980 Rocket 4.0 19:41:48 10° WSW 19:46:28 26° NW 19:46:52 25° NW
